Hourly Data Report for October 17, 2016

All times are specified in Local Standard Time (LST). Add 1 hour to adjust for Daylight Saving Time where and when it is observed.

RESOLUTE BAY A
NUNAVUT

74°43'01.000" N
94°58'10.000" W
67.70 m
2403498
71924
YRB

Download Data

Hourly Data (October 2016)
Hourly Data Report for October 17, 2016
Temp Definition
°C
Dew Point Temp Definition
°C
Rel Hum Definition
%
Wind Dir Definition
10's deg

Wind Spd Definition
km/h
Visibility Definition
km
Stn Press Definition
kPa
Hmdx Definition


Wind Chill Definition


Weather Definition


TIME
00:00 Legend Double Dagger -13.9 -16.5 81 3 20 24.1 100.11   -23 Mainly Clear
01:00 Legend Double Dagger -13.6 -16.2 81 27 6 24.1 100.13   -18 LegendNANA
02:00 Legend Double Dagger -15.0 -17.3 83 32 17 24.1 100.18   -23 LegendNANA
03:00 Legend Double Dagger -17.5 -19.6 84 30 17 24.1 100.24   -27 Mainly Clear
04:00 Legend Double Dagger -19.3 -21.5 83 34 15 24.1 100.26   -28 LegendNANA
05:00 Legend Double Dagger -16.9 -18.9 85 33 16 24.1 100.28   -26 LegendNANA
06:00 Legend Double Dagger -18.5 -20.7 83 32 14 24.1 100.32   -27 Mainly Clear
07:00 Legend Double Dagger -19.3 -21.4 84 29 12 24.1 100.36   -27 LegendNANA
08:00 Legend Double Dagger -19.9 -22.1 83 28 12 1.6 100.41   -28 Fog
09:00 Legend Double Dagger -18.4 -20.6 83 34 13 1.6 100.43   -26 Fog
10:00 Legend Double Dagger -17.6 -20.0 82 34 15 9.7 100.48   -26 Fog
11:00 Legend Double Dagger -17.4 -19.8 82 35 16 3.2 100.51   -26 Fog
12:00 Legend Double Dagger -17.7 -20.1 82 34 12 12.9 100.55   -25 Mainly Clear
13:00 Legend Double Dagger -16.8 -19.0 83 34 10 0.8 100.60   -23 Freezing Fog
14:00 Legend Double Dagger -16.1 -18.4 83 34 9 0.4 100.64   -22 Freezing Fog
15:00 Legend Double Dagger -15.8 -18.1 83 32 3 0.8 100.68   -18 Freezing Fog
16:00 Legend Double Dagger -15.1 -17.2 84 25 9 4.0 100.69   -21 Snow,Fog
17:00 Legend Double Dagger -15.2 -17.5 83 36 2 9.7 100.71   -17 Snow
18:00 Legend Double Dagger -15.3 -17.6 83 18 8 12.9 100.73   -21 Snow
19:00 Legend Double Dagger -14.5 -16.6 84 23 14 16.1 100.73   -22 Snow
20:00 Legend Double Dagger -14.2 -16.3 84 22 13 9.7 100.75   -21 Snow
21:00 Legend Double Dagger -14.0 -16.2 84 22 16 8.1 100.74   -22 Snow
22:00 Legend Double Dagger -14.4 -16.5 84 22 9 16.1 100.75   -20 Snow
23:00 Legend Double Dagger -15.5 -17.8 83 22 4 24.1 100.76   -18 Snow

Notes on Data Quality.

Legend

  • E = Estimated
  • M = Missing
  • NA = Not Available
  • ‡ = Partner data that is not subject to review by the National Climate Archives
Date modified: